ONEWEB-0069, 45430

Orbit data source: Space-Track

ONEWEB-0069, 45430 is a payload satellite owned by One Web (UK) in LEO that was launched on Sat, 21 Mar 2020 UTC via a SOYUZ-2-1B launch vehicle from the Tyuratam Missile And Space Complex (TTMTR). Payload-class satellites include a variety of spacecraft equipped with specific instruments for various scientific and technological missions. These include communications satellites like Starlink; space stations such as the ISS; scientific satellites like the Hubble; Earth observation satellites from companies like Planet Labs, Umbra, and HawkEye 360; GPS; miniature CubeSats for education and research; and military/defense satellites.

Loading next visibility...
Identifier
45430, 2020-020G
Orbit
LEO
Country
Flag of UKUK
Related business
Manufacturer
One Web
Mission
Operational Commercial Communications
Bus & Motor
ARROW, Unknown motor
Mass
148 kg wet, ~140 kg dry
Launch date (UTC)
2020-03-21 (6 years ago)
Launch vehicle
SOYUZ-2-1B
Launch site
Tyuratam Missile And Space Complex (TTMTR)
Object type
Payload
Rocket body
Debris
Shape & HBR
Trap Box + 2 Pan, 6.7 m
Radar Cross Section
3.464 m², Large (>1 m²)

Expand to show TLE details & history
Last TLE update: 3 days ago

TLE from 3 days ago
0 ONEWEB-0069
1 45430U 20020G   26170.66970591 -.00000085  00000-0 -27534-3 0  9998
2 45430  87.8890  20.5757 0001800  83.4200 276.7133 13.11413312302992
Epoch: 2026-06-19T16:04Z
TLE epoch observation values (Epoch: 2026-06-19T16:04:22.590Z)
Latitude
-0.00001°
Longitude
-128.41378°
Altitude
1,220.426 km
Speed
7.244 km/s
True Right ascension
01h 22m 18s
True Declination
0° 00' 00"
Sunlit
Object was in daylight at epoch
Visualization orbit readout
Latitude
Unknown
Longitude
Unknown
Altitude
Unknown
Speed
Unknown
Apparent Right ascension
Unknown
Apparent Declination
Unknown
Sunlit
N/A
Visualization observer readout
Local Sidereal Time
23:19:48
Azimuth
Unknown
Elevation
Unknown
Doppler factor
Unknown
Orbital elements
Apogee altitude
1,216.182 km
Perigee altitude
1,213.448 km
Semi-major axis
7,592.952 km
Eccentricity
0.00018
Inclination
87.889°
RAAN
20.5757°
Arg. of periapsis
83.42°
True anomaly
276.69281°
Mean anomaly
276.7133°
Eccentric anomaly
276.70306°
Mean motion
3.2804 °/min
Orbital period
109.74 mins
BSTAR
-0.00027534
Loading maneuver chart data...
Computing Atmospheric mass density...
Loading historical data...
Loading historical data...
Loading historical data...
Loading historical data...
Loading historical data...
Loading historical data...
Loading historical data...

Documentation

Showing up to 5 results
|